CZ-4C DEB, 44617

Orbit data source: Space-Track

CZ-4C DEB, 44617 is space debris in LEO originally from a launch on Tue, 10 Apr 2018 UTC launched from the Taiyaun Space Center, China (TSC). Debris objects in space refer to the collection of defunct objects orbiting the Earth. Examples of debris include non-operational satellites, rocket bodies, and fragments generated from explosions, collisions, or faulty payload assembly.

Loading next visibility...
Identifier
44617, 2018-034J
Orbit
LEO
Country
Flag of CNCN / PRC
Related business
Manufacturer
Unknown
Mission
Spacecraft
Bus & Motor
Unknown
Mass
Unknown
Launch date (UTC)
2018-04-10 (8 years ago)
Launch vehicle
Unknown
Launch site
Taiyaun Space Center, China (TSC)
Object type
Payload
Rocket body
Debris
Shape & HBR
Unknown shape, 0.1 m
Radar Cross Section
Small (<0.1 m²)

Expand to show TLE details & history
Last TLE update: 1 day ago

TLE from 1 day ago
0 CZ-4C DEB
1 44617U 18034J   26122.64542853 -.00000089  00000-0  18252-6 0  9990
2 44617  63.3971 266.5928 0248188   7.2615 353.1898 13.41009675388139
Epoch: 2026-05-02T15:29Z
TLE epoch observation values (Epoch: 2026-05-02T15:29:25.024Z)
Latitude
-0.00003°
Longitude
173.67816°
Altitude
922.908 km
Speed
7.481 km/s
True Right ascension
17h 46m 22s
True Declination
0° 00' 00"
Sunlit
Object was in full shadow at epoch
Visualization orbit readout
Latitude
Unknown
Longitude
Unknown
Altitude
Unknown
Speed
Unknown
Apparent Right ascension
Unknown
Apparent Declination
Unknown
Sunlit
N/A
Visualization observer readout
Local Sidereal Time
03:48:25
Azimuth
Unknown
Elevation
Unknown
Doppler factor
Unknown
Orbital elements
Apogee altitude
1,290.058 km
Perigee altitude
918.645 km
Semi-major axis
7,482.489 km
Eccentricity
0.02482
Inclination
63.3971°
RAAN
266.5928°
Arg. of periapsis
7.2615°
True anomaly
352.84185°
Mean anomaly
353.1898°
Eccentric anomaly
353.01692°
Mean motion
3.35331 °/min
Orbital period
107.36 mins
BSTAR
1.8252e-7
Loading maneuver chart data...
Computing Atmospheric mass density...
Loading historical data...
Loading historical data...
Loading historical data...
Loading historical data...
Loading historical data...
Loading historical data...
Loading historical data...

Documentation

Showing up to 5 results
|